Weather History for Hot Springs, AR

Change the Weather History Date:

Thursday, October 6, 2011

  Actual Average Record
Temperature  
Mean Temperature 72 °F -  
Max Temperature 84 °F 80 °F 97 °F (1956)
Min Temperature 60 °F 53 °F 39 °F (1985)
Cooling Degree Days 7    
Growing Degree Days 22 (Base 50)    
Moisture  
Dew Point 50 °F    
Average Humidity 48    
Maximum Humidity 72    
Minimum Humidity 27    
Precipitation  
Precipitation 0.00 in - - ()
Sea Level Pressure  
Sea Level Pressure 30.11 in    
Wind  
Wind Speed 5 mph (ESE)    
Max Wind Speed 14 mph    
Max Gust Speed 18 mph    
Visibility 10 miles    
Events      
Averages and records for this station are not official NWS values.
T = Trace of Precipitation, MM = Missing Value Source: NWS Daily Summary

Daily Weather History Graph

Daily Weather History Graph

Search for Another Location

Airport:

Trip Planner

Search our weather history database for the weather conditions in past years. The results will help you decide how hot, cold, wet, or windy it might be!

Date:

Astronomy

Oct. 06, 2011 Rise Set
Actual Time 7:10 AM CDT 6:49 PM CDT
Civil Twilight 6:45 AM CDT 7:15 PM CDT
Nautical Twilight 6:16 AM CDT 7:44 PM CDT
Astronomical Twilight 5:47 AM CDT 8:13 PM CDT
Moon 3:52 PM CDT (10/6) 2:12 AM CDT (10/6)
Length of Visible Light 12h 29m
Length of Day
11h 39m
Waxing Gibbous, 75% of the Moon is Illuminated
Oct 6
Waxing Gibbous
Oct 11
Full
Oct 19
Last Quarter
Oct 26
New
Nov 2
First Quarter

Hourly Weather History & Observations

Time (CDT) Temp. Dew Point Humidity Pressure Visibility Wind Dir Wind Speed Gust Speed Precip Events Conditions
12:53 AM 62.1 °F 48.0 °F 60% 30.11 in 10.0 mi East 6.9 mph - N/A   Clear
1:53 AM 61.0 °F 48.9 °F 64% 30.11 in 10.0 mi East 3.5 mph - N/A   Clear
2:53 AM 62.1 °F 48.9 °F 62% 30.11 in 10.0 mi Calm Calm - N/A   Clear
3:53 AM 64.0 °F 50.0 °F 60% 30.10 in 10.0 mi East 5.8 mph - N/A   Clear
4:53 AM 61.0 °F 51.1 °F 70% 30.11 in 10.0 mi ENE 5.8 mph - N/A   Clear
5:53 AM 61.0 °F 52.0 °F 72% 30.12 in 10.0 mi Calm Calm - N/A   Clear
6:53 AM 60.1 °F 51.1 °F 72% 30.13 in 10.0 mi Calm Calm - N/A   Clear
7:53 AM 60.1 °F 51.1 °F 72% 30.14 in 10.0 mi East 6.9 mph - N/A   Clear
8:53 AM 64.9 °F 52.0 °F 63% 30.16 in 10.0 mi East 4.6 mph - N/A   Clear
9:53 AM 69.8 °F 51.8 °F 53% 30.18 in 10.0 mi Variable 3.5 mph - N/A   Clear
10:53 AM 73.9 °F 52.0 °F 46% 30.17 in 10.0 mi SE 3.5 mph - N/A   Clear
11:53 AM 79.0 °F 52.0 °F 39% 30.15 in 10.0 mi SSE 8.1 mph - N/A   Clear
12:53 PM 81.0 °F 50.0 °F 34% 30.13 in 10.0 mi SSW 9.2 mph 18.4 mph N/A   Clear
1:53 PM 82.0 °F 48.9 °F 31% 30.10 in 10.0 mi Variable 6.9 mph - N/A   Clear
2:53 PM 84.0 °F 50.0 °F 31% 30.07 in 10.0 mi Variable 5.8 mph - N/A   Clear
3:53 PM 84.9 °F 50.0 °F 30% 30.06 in 10.0 mi Variable 6.9 mph 16.1 mph N/A   Clear
4:53 PM 84.0 °F 46.9 °F 27% 30.05 in 10.0 mi SSE 13.8 mph 18.4 mph N/A   Clear
5:53 PM 82.9 °F 48.9 °F 31% 30.05 in 10.0 mi ESE 8.1 mph - N/A   Clear
6:53 PM 80.1 °F 46.9 °F 31% 30.06 in 10.0 mi SE 9.2 mph 16.1 mph N/A   Clear
7:53 PM 77.0 °F 48.9 °F 37% 30.08 in 10.0 mi ESE 5.8 mph - N/A   Clear
8:53 PM 75.9 °F 48.9 °F 38% 30.10 in 10.0 mi ESE 8.1 mph - N/A   Clear
9:53 PM 75.0 °F 48.9 °F 40% 30.11 in 10.0 mi ESE 5.8 mph - N/A   Clear
10:53 PM 73.0 °F 48.9 °F 42% 30.11 in 10.0 mi ESE 4.6 mph - N/A   Clear
11:53 PM 72.0 °F 50.0 °F 46% 30.11 in 10.0 mi ESE 8.1 mph - N/A   Clear